ONEWEB-0314 (49100 NORAD) Tracking and Keplerian Element Data

This shows tracking and keplerian element data for the satellite.

Feedback or suggestion? Click here.




ElementValue
Catalog49100
NameONEWEB-0314
Epoch Orbit559
Epoch Day262.16668981
Epoch Year2021
RAAN356.455
Inclination87.414
Eccentricity0.001972
Argument of Perigee197.8867
Mean Anonmoly202.0018
Mean Motion15.12967461
Decay Rate-0.00893564
L11 49100U 21075AB 21262.16668981 -.00893564 00000-0 -54359-1 0 9991
L22 49100 87.4140 356.4550 0019720 197.8867 202.0018 15.12967461 5597

Live tracking and technical data element details for ONEWEB-0314 (NORAD 49100). ONEWEB-0314 can be tracked NOW for your location showing map with azimuth and elevation plus other details from your city location.

Track the satellite on the map from your city or location and see movement details for azimuth, elevation, latitude, longitude, range, height, and movement on the map or in text.







IsCatalogInMostPopularTable: catalog: 49100, numindb: 5
Update: records affected: 1



GetName: 49100 ONEWEB-0314

Hit Count: updated at: Fri, 24 Sep 2021 18:31:10 GMT